EUTELSAT 33F

Last updated on Sun Apr 12 2026 00:02:51 GMT+0000 (Coordinated Universal Time)

1 29270U 06032A 26101.24199588 .00000158 00000+0 00000+0 0 9999 2 29270 1.4875 82.9596 0003565 303.4727 293.2533 1.00274230 46636
UTC large
Height (km)
Speed (km/s)
/
Latitude / Longitude
Inclination (degrees)
Orbital Period (minutes)
Azimuth
Elevation
Range (km)
Doppler Factor

Next 0 passes for location: London (51.5072 / 0.1276)

Sorry there are no passes over London.
EUTELSAT 33F